Temperature
22 23 23 23 23 23 23 23 23 23 23 23 23 22 22 22 21 21 20 20 19 19 18 17 17 17 17 16 16 16 16 15 15 15 15 14 14 14 14 14 14 14 14 14
23 22 22 22 22 22 23 23 23 23 23 23 23 23 23 22 21 20 20 20 20 19 18 17 17 17 17 17 16 16 16 16 15 15 15 14 14 14 14 14 14 14 14 14
22 22 22 22 22 22 22 23 23 22 22 23 22 23 23 22 21 20 20 20 20 19 18 18 17 17 17 17 16 16 16 16 15 15 15 14 14 14 14 14 14 13 13 13
22 22 22 22 22 22 22 22 22 22 22 22 22 22 23 23 22 21 20 20 19 19 18 18 17 17 17 16 16 16 16 15 15 15 15 14 14 14 14 14 13 13 13 13
22 22 21 22 22 22 22 22 22 22 22 22 22 22 23 23 22 22 21 20 19 18 18 17 17 17 16 16 16 16 16 15 15 15 15 14 14 14 14 14 13 13 13 13
22 22 22 22 22 22 22 22 22 22 22 21 22 22 22 23 23 22 22 20 19 18 18 17 17 16 16 16 16 16 15 15 15 15 14 14 14 14 14 13 13 13 13 13
21 22 22 21 21 21 22 22 21 21 21 22 22 22 22 23 22 22 21 20 19 18 18 17 17 16 16 16 16 16 15 15 15 15 14 14 14 14 13 13 13 13 13 13
21 21 21 21 22 22 22 22 21 21 21 22 22 22 22 22 21 20 20 19 19 18 17 17 16 16 16 16 16 15 15 15 15 15 14 14 14 14 13 13 13 13 13 13
21 21 21 21 21 22 21 22 22 22 22 21 22 22 22 21 21 20 20 19 18 17 17 16 16 16 16 16 15 15 15 15 15 14 14 14 14 14 13 13 13 13 13 12
21 20 21 20 21 20 22 22 21 21 20 21 21 22 22 21 21 21 20 19 18 17 16 16 16 16 15 15 15 15 15 14 14 14 14 14 14 13 13 13 13 12 12 12
20 20 20 20 20 21 20 21 21 21 21 20 21 22 22 21 20 20 20 18 18 17 16 16 15 15 15 15 15 15 15 15 14 14 14 13 13 13 13 13 13 12 12 12
19 20 20 20 20 20 21 21 21 20 20 20 20 21 21 21 20 19 19 18 17 16 15 15 15 15 15 15 14 14 14 14 14 14 14 13 13 13 13 13 12 12 12 12
19 19 19 19 20 19 20 20 20 20 20 20 20 21 20 20 19 18 18 17 16 15 15 14 14 14 14 14 14 14 14 14 14 13 13 13 13 13 13 13 12 12 12 12
18 19 19 19 20 19 19 19 19 19 19 20 20 21 20 20 19 18 17 17 16 15 15 14 14 13 13 14 13 13 13 13 13 13 13 13 13 13 13 12 12 12 12 12
18 19 19 19 19 18 18 19 19 19 19 19 20 20 20 20 19 18 17 16 15 15 14 14 14 13 13 13 13 13 13 13 13 13 13 12 12 12 12 12 12 12 12 11
18 18 18 18 18 18 17 18 18 18 18 19 19 19 19 19 18 17 17 16 15 15 14 14 14 13 13 13 13 13 13 13 13 12 12 12 12 12 12 12 12 11 11 11
17 17 17 18 18 17 17 18 18 18 18 18 18 19 18 18 18 17 16 15 15 14 14 14 14 13 13 13 13 13 12 12 12 12 12 12 12 12 11 11 11 11 11 11
17 17 17 17 17 16 18 18 18 18 18 18 18 18 17 17 16 16 15 15 15 14 14 13 13 13 13 13 13 12 12 12 12 12 12 12 11 11 11 11 11 11 10 10
16 16 16 16 16 17 17 17 17 17 17 17 17 17 16 16 16 16 15 14 14 14 13 13 13 13 12 12 12 12 12 11 11 11 11 11 11 11 11 11 10 10 10 10
15 16 16 16 16 16 17 17 16 17 17 17 17 17 16 16 17 17 14 13 13 13 13 12 12 12 12 12 12 11 11 11 11 11 11 11 10 10 10 10 10 10 10 10
15 15 15 16 16 17 17 15 16 16 17 16 15 16 15 16 16 15 14 13 12 12 12 12 12 12 11 11 11 11 11 11 11 10 10 10 10 10 10 10 10 10 10 9
15 15 15 15 15 16 15 15 16 17 16 15 15 14 14 14 14 13 13 12 12 12 12 12 11 11 11 11 11 10 10 10 10 10 10 9 9 9 9 9 9 9 9 9
15 15 15 15 16 15 14 14 14 14 14 14 14 13 13 12 12 12 12 12 12 11 11 11 11 11 11 10 10 10 10 10 9 9 9 9 9 9 9 9 9 9 9 8
14 14 14 15 15 14 13 13 13 13 13 13 13 12 12 12 12 12 12 12 11 11 11 11 10 10 10 10 10 10 10 9 9 9 9 9 9 9 8 8 8 8 8 8
14 13 14 14 15 14 13 13 13 12 12 12 12 12 12 11 11 11 11 11 11 10 10 10 10 10 10 10 10 9 9 9 9 9 9 8 8 8 8 8 8 8 8 8
13 13 14 14 15 15 14 13 12 12 12 12 11 11 11 11 11 11 11 10 10 10 10 10 9 9 9 9 9 9 9 8 8 8 8 8 8 8 7 7 7 7 7 7
Wind_Speed
4 5 5 5 5 3 4 4 4 2 1 3 4 5 5 4 6 6 7 7 7 7 7 6 6 6 6 7 7 7 7 7 6 5 4 4 3 2 2 2 2 2 2 2
6 6 4 3 4 5 6 6 4 2 1 3 4 6 5 4 6 6 7 7 8 7 7 7 7 7 7 7 7 7 7 8 7 5 5 4 3 2 2 2 1 1 1 2
7 3 4 6 6 7 7 7 5 3 3 4 5 7 5 4 5 5 6 6 7 7 8 8 8 7 7 7 7 7 8 8 8 7 5 4 3 2 2 2 2 1 1 1
5 4 5 6 7 7 6 4 5 5 6 4 5 5 4 5 6 6 6 6 7 7 8 7 8 8 8 8 7 7 8 8 8 8 7 6 4 4 3 3 3 3 2 2
5 5 6 7 6 6 4 3 4 6 7 7 6 6 3 4 5 5 5 5 6 7 7 8 8 7 7 7 7 7 8 7 7 8 7 6 5 4 3 3 4 4 3 2
5 4 5 5 4 4 4 5 4 5 6 7 5 6 3 2 2 2 3 4 5 6 7 7 7 7 6 6 6 6 7 7 7 7 7 7 6 5 4 4 4 3 2 2
6 6 5 4 5 6 7 6 4 5 6 4 3 5 3 1 1 2 2 3 4 5 7 7 7 7 7 7 7 7 8 8 8 8 8 7 6 6 6 5 5 4 3 3
6 6 5 5 6 6 8 8 6 4 4 3 4 5 1 1 1 1 2 3 4 5 5 6 7 7 7 7 7 7 8 8 8 8 8 7 6 5 4 5 5 5 4 4
4 4 3 2 3 5 7 7 5 5 5 6 4 3 2 1 2 2 2 3 3 3 4 5 5 6 6 7 7 8 8 8 8 9 8 7 7 6 5 5 6 4 4 4
3 4 3 3 4 2 4 5 5 6 5 6 5 6 3 4 2 2 2 2 2 2 3 3 4 5 5 6 6 7 7 7 7 8 7 6 7 7 6 6 6 5 5 5
5 5 4 6 7 7 6 6 6 5 5 6 6 3 1 3 2 1 0 1 1 1 1 2 2 3 4 5 6 6 6 7 7 7 7 7 7 6 6 6 6 6 6 6
3 4 6 6 3 3 6 7 7 7 7 7 7 4 3 2 1 1 1 0 1 1 1 2 2 3 4 4 5 5 5 6 6 7 7 7 7 7 7 7 7 7 7 7
3 4 5 5 6 6 7 6 7 7 7 8 9 5 3 2 1 1 1 1 1 1 2 2 2 2 2 3 3 4 4 5 6 6 6 6 7 7 7 7 7 7 7 7
3 6 8 7 4 4 7 7 8 9 8 10 12 10 5 3 3 3 3 2 1 1 1 1 1 2 1 2 2 3 3 4 4 5 6 6 6 6 6 6 6 7 7 8
3 6 7 7 6 7 9 10 11 12 12 12 12 11 8 5 4 3 3 3 2 2 1 1 1 1 1 1 1 2 2 3 4 5 5 6 6 6 6 6 6 7 7 7
2 4 6 7 6 7 10 11 12 13 13 14 13 12 7 5 3 3 3 3 3 2 2 2 2 2 2 2 2 2 2 2 4 4 5 5 5 5 6 6 6 6 6 7
4 5 5 7 6 8 10 11 12 11 10 11 12 8 5 5 4 4 3 3 3 3 3 3 3 2 2 2 2 2 2 2 3 4 4 4 5 5 5 5 6 6 6 6
6 6 5 6 6 9 4 2 6 8 8 7 7 5 5 5 5 4 4 4 5 4 4 4 3 3 3 2 2 2 2 2 3 3 4 4 4 5 5 5 5 6 6 6
8 7 5 5 7 8 5 4 5 7 7 6 7 6 4 4 4 5 4 4 5 4 4 4 4 3 3 2 3 2 2 2 3 3 3 3 4 4 4 5 5 5 5 6
5 7 6 6 7 6 3 2 2 4 6 4 5 6 5 5 6 4 2 3 4 4 3 3 3 3 3 2 3 3 3 3 3 3 3 3 3 4 4 5 5 4 5 5
5 6 8 9 8 6 1 1 4 6 2 1 2 4 5 6 6 3 3 4 4 4 3 3 3 3 3 3 3 3 3 3 3 3 3 3 3 4 4 4 4 4 4 5
6 5 6 6 7 5 2 3 4 3 2 2 3 4 4 5 5 4 4 4 4 4 3 3 3 3 2 3 3 3 3 2 2 2 2 3 3 3 3 3 3 4 4 4
6 6 4 5 5 2 2 3 3 4 4 4 4 5 5 5 5 5 5 4 4 4 3 3 3 3 3 3 3 3 2 2 2 3 3 3 3 3 3 3 3 3 3 4
5 5 6 6 7 6 5 6 5 4 5 5 5 5 5 5 5 5 5 4 4 4 4 3 4 3 3 3 3 3 2 2 3 3 3 3 3 3 3 3 3 3 3 3
6 5 7 9 8 7 7 6 6 6 5 5 5 4 5 5 5 5 5 4 4 3 3 4 4 4 4 3 3 3 2 3 3 3 3 3 3 3 3 3 2 3 3 3
7 8 8 8 7 6 6 5 5 5 5 5 5 5 4 4 5 4 4 3 3 3 4 4 4 4 4 3 4 3 3 3 4 3 3 3 3 3 3 3 2 1 2 1
Wind_Direction
182 196 196 195 211 227 205 209 210 203 186 224 238 249 247 213 209 210 205 201 198 196 185 179 177 179 181 182 184 181 179 176 169 164 168 168 169 161 143 114 101 98 90 91
187 202 206 199 198 199 207 214 212 207 195 249 260 263 255 227 220 220 216 208 202 192 184 180 181 180 184 184 189 186 185 181 176 175 175 176 171 170 160 139 123 124 121 109
206 179 175 190 196 206 216 224 228 239 255 239 266 254 230 203 203 209 218 218 210 200 193 187 186 186 187 189 191 191 187 181 179 176 172 160 154 164 168 175 178 173 158 144
211 204 190 203 213 222 223 220 230 238 253 259 262 275 239 209 206 203 207 207 207 201 198 192 189 189 190 192 191 192 187 183 180 177 179 178 185 189 195 190 182 185 180 174
196 187 201 216 225 228 229 199 223 243 255 263 251 263 250 196 211 210 203 200 197 195 193 190 189 190 190 186 186 190 184 182 179 182 182 191 196 199 190 187 188 189 182 192
212 205 221 226 220 212 184 188 209 231 245 249 246 249 256 204 227 224 194 193 192 188 186 187 185 184 181 176 177 182 182 181 180 185 190 199 199 200 195 195 193 196 192 205
208 209 208 212 204 193 207 221 227 221 222 235 217 244 253 348 291 250 212 186 183 182 180 179 180 182 179 176 176 179 182 182 183 188 194 201 202 204 208 208 204 208 206 210
216 207 196 210 224 219 214 229 242 249 245 247 217 237 242 22 308 207 185 174 163 168 176 180 182 183 182 182 182 183 184 187 189 195 198 199 199 206 215 218 216 217 222 220
218 204 169 202 226 222 208 221 252 265 264 262 235 233 230 158 136 138 139 141 143 149 167 178 184 188 185 184 185 187 187 190 195 200 201 202 204 206 211 220 223 224 227 228
236 227 194 180 192 205 239 214 218 234 245 250 245 240 219 168 154 123 117 120 128 137 145 156 175 186 188 186 186 187 190 193 196 201 203 206 208 211 215 219 223 226 229 226
232 229 211 200 214 218 199 209 224 235 247 254 254 238 142 180 160 169 94 116 130 140 151 148 155 171 179 180 185 191 195 197 199 201 203 208 210 212 215 220 224 229 232 228
223 231 233 231 227 250 236 230 229 237 235 240 259 253 114 160 199 239 273 178 123 126 134 128 127 143 163 177 187 194 200 206 208 207 206 211 213 213 219 224 228 231 232 231
201 223 231 224 205 204 216 220 231 244 251 243 245 242 150 172 256 264 257 241 143 128 122 122 122 127 148 170 191 202 206 212 211 209 211 213 215 217 222 228 232 234 233 233
241 234 242 248 253 235 232 228 229 231 244 251 248 254 237 244 261 258 243 228 190 160 139 133 144 141 150 166 188 210 215 215 212 208 213 220 222 223 228 232 236 237 236 233
233 246 248 257 259 252 256 251 239 239 248 255 263 264 262 266 264 251 223 203 194 196 185 189 187 185 185 184 193 215 220 214 211 211 216 224 228 227 230 231 233 237 240 240
233 246 248 250 242 248 256 255 248 246 248 250 257 263 265 264 253 240 220 211 214 225 232 233 231 214 219 219 217 221 229 227 216 214 221 225 230 230 232 235 235 238 242 242
216 234 252 254 248 256 252 244 238 236 236 240 250 257 252 251 251 255 244 232 242 248 247 245 247 248 242 239 235 235 238 235 226 222 224 221 224 230 235 238 239 239 241 241
225 234 250 261 251 246 256 238 237 236 239 239 245 250 252 266 268 255 246 251 256 255 250 248 252 253 240 234 235 233 228 228 230 231 231 229 227 229 233 237 241 243 242 239
221 226 235 243 252 261 250 224 222 227 241 239 237 239 247 268 263 245 240 265 268 263 253 248 248 244 225 220 216 210 216 225 231 242 244 240 236 236 235 236 241 243 242 241
196 215 230 234 246 251 248 185 216 237 240 215 229 237 237 236 256 261 244 266 269 265 255 246 244 229 218 216 210 208 217 228 239 248 253 249 244 237 239 243 245 244 241 243
193 209 225 236 243 256 286 148 178 222 268 143 245 251 240 239 264 285 261 263 264 256 250 242 228 221 219 211 205 218 231 243 253 260 260 258 256 250 246 247 248 245 244 246
216 216 221 225 232 245 128 165 214 293 348 259 265 265 266 270 278 272 263 259 252 245 240 230 217 213 211 206 210 226 247 260 261 259 258 260 262 260 253 245 247 244 241 243
228 235 240 233 247 317 192 240 287 303 280 278 278 276 271 273 273 269 262 253 246 242 235 226 217 207 212 215 223 237 256 264 259 257 260 266 268 266 256 241 236 237 238 240
236 247 244 249 255 261 260 263 274 277 275 280 278 270 259 262 266 264 261 252 240 235 226 223 217 215 219 225 238 248 249 248 249 257 265 264 268 271 265 250 236 233 232 235
243 226 238 249 261 265 256 255 263 271 273 276 275 268 261 260 263 262 258 244 233 223 218 220 223 226 225 225 236 244 240 242 255 261 264 265 263 263 262 255 254 245 238 246
227 230 238 251 257 261 270 277 274 264 262 265 270 272 266 259 258 256 250 241 234 228 221 225 228 231 233 234 239 242 242 243 252 262 265 268 267 262 255 251 242 239 260 241
Height
1506 1505 1505 1505 1506 1507 1507 1510 1511 1511 1511 1512 1512 1512 1512 1514 1516 1517 1518 1520 1521 1523 1525 1527 1528 1529 1531 1532 1534 1535 1536 1537 1538 1539 1540 1541 1542 1542 1543 1543 1543 1543 1543 1543
1505 1505 1505 1506 1507 1508 1509 1510 1511 1511 1511 1511 1510 1510 1509 1511 1513 1515 1515 1517 1519 1521 1523 1525 1526 1527 1529 1530 1532 1533 1534 1535 1537 1538 1540 1540 1541 1542 1542 1542 1543 1543 1543 1543
1503 1505 1506 1507 1508 1509 1509 1510 1510 1512 1511 1509 1511 1509 1506 1508 1511 1513 1514 1515 1516 1518 1520 1522 1523 1525 1526 1528 1530 1531 1533 1534 1535 1537 1538 1539 1540 1541 1541 1541 1542 1542 1542 1542
1503 1504 1506 1507 1507 1507 1509 1508 1510 1511 1512 1511 1512 1512 1503 1503 1506 1509 1511 1512 1514 1516 1518 1519 1521 1523 1524 1526 1527 1529 1531 1533 1534 1536 1537 1538 1539 1540 1541 1541 1541 1541 1542 1542
1502 1503 1505 1506 1506 1506 1507 1508 1509 1510 1510 1511 1509 1511 1502 1500 1503 1504 1507 1509 1511 1513 1515 1517 1519 1520 1522 1524 1525 1527 1529 1531 1532 1534 1535 1537 1538 1539 1540 1540 1540 1541 1541 1541
1501 1503 1504 1504 1506 1507 1508 1509 1510 1509 1509 1515 1509 1510 1505 1498 1500 1501 1504 1507 1509 1511 1513 1515 1517 1518 1520 1522 1523 1525 1527 1529 1530 1532 1533 1535 1536 1537 1538 1538 1539 1539 1540 1540
1502 1502 1503 1505 1505 1507 1507 1510 1516 1516 1515 1512 1506 1508 1503 1498 1499 1501 1503 1506 1508 1509 1511 1513 1514 1516 1518 1520 1521 1523 1525 1527 1528 1530 1532 1533 1534 1535 1536 1537 1537 1538 1538 1538
1502 1504 1501 1502 1502 1503 1503 1505 1514 1518 1515 1508 1506 1506 1499 1499 1500 1502 1503 1505 1506 1508 1509 1511 1512 1514 1516 1517 1519 1521 1523 1524 1526 1528 1529 1531 1532 1533 1534 1535 1535 1536 1536 1536
1501 1503 1501 1502 1503 1502 1503 1503 1502 1506 1507 1510 1503 1500 1498 1498 1500 1502 1503 1504 1506 1507 1508 1510 1511 1512 1514 1515 1517 1519 1520 1522 1524 1525 1527 1528 1529 1530 1531 1532 1533 1534 1534 1534
1499 1504 1501 1503 1503 1503 1502 1501 1505 1508 1513 1513 1506 1501 1498 1498 1499 1500 1502 1504 1505 1507 1508 1508 1509 1510 1512 1513 1515 1517 1518 1520 1521 1523 1524 1525 1526 1528 1529 1530 1530 1531 1531 1531
1500 1502 1503 1502 1501 1500 1503 1504 1503 1504 1504 1510 1509 1502 1492 1495 1499 1500 1502 1504 1505 1506 1507 1507 1508 1508 1510 1511 1513 1514 1516 1517 1519 1520 1521 1522 1524 1524 1526 1526 1527 1528 1528 1529
1501 1500 1501 1500 1499 1500 1499 1500 1502 1507 1506 1504 1505 1502 1493 1496 1499 1500 1502 1503 1505 1505 1506 1506 1507 1507 1508 1509 1511 1512 1513 1515 1516 1517 1518 1519 1521 1521 1522 1523 1524 1525 1525 1526
1502 1501 1504 1503 1504 1502 1500 1500 1501 1501 1502 1501 1503 1500 1494 1496 1498 1500 1501 1502 1504 1504 1505 1505 1505 1506 1506 1507 1508 1510 1511 1512 1513 1514 1515 1516 1517 1518 1519 1520 1520 1521 1522 1522
1503 1499 1501 1503 1498 1498 1500 1501 1501 1502 1502 1500 1495 1493 1493 1495 1498 1500 1501 1501 1502 1503 1504 1504 1504 1504 1505 1506 1507 1508 1508 1509 1510 1511 1512 1513 1514 1514 1515 1516 1517 1517 1518 1518
1502 1499 1497 1497 1498 1499 1499 1499 1499 1499 1497 1497 1492 1492 1491 1493 1497 1499 1500 1501 1501 1502 1502 1503 1503 1503 1504 1504 1505 1505 1506 1506 1507 1508 1508 1509 1510 1511 1511 1512 1513 1513 1514 1514
1501 1500 1498 1498 1497 1498 1499 1497 1496 1496 1495 1494 1493 1493 1492 1494 1496 1497 1498 1499 1500 1500 1501 1501 1501 1502 1502 1502 1503 1503 1503 1504 1505 1505 1505 1506 1507 1507 1508 1508 1509 1510 1510 1510
1501 1501 1501 1497 1496 1496 1496 1491 1491 1491 1490 1491 1491 1491 1493 1493 1494 1496 1497 1498 1498 1498 1499 1499 1499 1499 1500 1500 1500 1500 1501 1501 1502 1502 1503 1503 1503 1504 1504 1505 1505 1505 1506 1506
1500 1500 1499 1497 1498 1502 1488 1487 1487 1488 1488 1488 1489 1490 1492 1493 1493 1494 1495 1496 1496 1496 1497 1497 1497 1497 1498 1498 1498 1498 1499 1499 1499 1499 1500 1500 1500 1500 1501 1501 1501 1502 1502 1502
1498 1499 1499 1498 1496 1490 1486 1486 1487 1487 1487 1487 1488 1489 1491 1492 1492 1491 1492 1493 1494 1494 1494 1494 1495 1495 1495 1495 1495 1496 1496 1496 1496 1496 1496 1496 1497 1497 1497 1497 1497 1497 1498 1498
1498 1497 1497 1497 1497 1492 1484 1484 1487 1488 1486 1485 1486 1487 1489 1489 1488 1487 1490 1491 1491 1491 1491 1491 1492 1492 1492 1492 1492 1493 1493 1493 1493 1493 1493 1493 1494 1494 1493 1494 1494 1494 1494 1494
1495 1496 1495 1492 1491 1484 1482 1485 1486 1490 1484 1485 1486 1486 1487 1486 1486 1488 1488 1488 1488 1488 1489 1489 1489 1489 1489 1489 1489 1490 1490 1490 1490 1490 1490 1490 1490 1490 1490 1490 1490 1490 1490 1490
1489 1491 1491 1489 1490 1487 1484 1485 1484 1483 1483 1484 1485 1485 1485 1485 1485 1485 1485 1485 1485 1485 1486 1486 1486 1486 1486 1487 1487 1487 1488 1487 1487 1487 1487 1487 1487 1487 1486 1486 1486 1486 1486 1486
1487 1486 1484 1484 1484 1482 1484 1483 1484 1484 1483 1483 1484 1484 1484 1483 1482 1482 1482 1482 1482 1482 1483 1483 1483 1483 1484 1484 1484 1485 1485 1484 1484 1484 1484 1483 1483 1483 1483 1483 1482 1482 1482 1482
1484 1486 1484 1482 1480 1482 1483 1482 1482 1482 1482 1482 1482 1481 1481 1480 1479 1479 1478 1478 1479 1479 1479 1480 1480 1480 1481 1481 1481 1482 1482 1482 1482 1481 1481 1480 1480 1480 1480 1479 1479 1478 1478 1478
1483 1484 1481 1479 1479 1479 1479 1480 1480 1480 1479 1479 1479 1478 1478 1477 1476 1475 1475 1475 1476 1476 1476 1477 1477 1477 1478 1478 1478 1479 1479 1479 1479 1478 1477 1477 1477 1476 1476 1476 1475 1475 1474 1474
1479 1479 1478 1475 1476 1476 1476 1477 1477 1477 1477 1476 1476 1475 1474 1474 1473 1473 1472 1472 1473 1473 1473 1474 1474 1474 1475 1474 1475 1475 1475 1475 1475 1474 1474 1474 1473 1473 1472 1472 1471 1470 1470 1470